Tracking 34406 objects as of 15-Jun-2026
HD Live streaming from Space Station
objects crossing your sky now

DELTA 1 DEB

Track DELTA 1 DEB now!
10-day predictions


NORAD ID: 7200
Int'l Code: 1973-086FJ
Perigee: 1,437.7 km
Apogee: 1,920.7 km
Inclination: 102.4 °
Period: 119.8 minutes
Semi major axis: 8050 km
RCS: 0.0922 m2 (small)
Launch date: November 6, 1973
Source: United States (US)
Launch site: AIR FORCE WESTERN TEST RANGE (AFWTR)

Note: This is SATELLITE DEBRIS
Your satellite tracking list
Your tracking list is empty




NASA's NSSDC Master Catalog

Two Line Element Set (TLE):
1  7200U 73086FJ  26165.90585730 -.00000113  00000-0 -75031-3 0  9996
2  7200 102.3891 150.9390 0299989 356.4588  58.0750 12.01968592302033
Source of the keplerian elements: AFSPC